カタリナ彗星

C/2021 K3 ( Catalina )

English version
Home page
Updated on November 15, 2021

---------------------------------------------------------------------

・ プロフィール

発見日 2021年5月20日
発見光度 21.9等
発見者 Catalina Sky Survey

・ 軌道要素

Epoch 2022 Jan. 21.0 TT = JDT 2459600.5
T 2022 Feb. 2.66986 TT                                  Rudenko
q   5.2298457            (2000.0)            P               Q
z  -0.0006372      Peri.  181.99333     +0.39136072     -0.65519298
 +/-0.0000375      Node   114.45092     -0.83417587     +0.04392015
e   1.0033323      Incl.  134.77728     -0.38857097     -0.75418379
From 24 observations 2021 July 6-Oct. 8, mean residual 0".4.

・ 光度変化

        m1 = 10.0 + 5 logΔ + 10.0 log r

---------------------------------------------------------------------

軌道要素はM.P.E.C. 2021-U31に掲載されたものです。
光度グラフはComet for Windowsで作成したものです。

---------------------------------------------------------------------

Copyright(C) Seiichi Yoshida (comet@aerith.net). All rights reserved.